EW9451 Weather Reports


Display with metric or nautical units.
time (UTC)temp
F
wind
direction
speed
MPH
gust
MPH
rain 1hr
in
rain 24hr
in
rain mn
in
humidity
%
barometer
mb
20260904092033 62 113 0.0 1.0 0.00 0.04 0.04 96 1004.5
20260904091533 63 113 0.0 0.0 0.00 0.04 0.04 96 1004.4
20260904091032 63 113 0.0 0.0 0.00 0.04 0.04 96 1004.4
20260904090534 63 113 0.0 0.0 0.00 0.04 0.04 96 1004.5
20260904090031 63 113 0.0 1.0 0.00 0.04 0.04 96 1004.4
20260904085530 63 113 0.0 1.0 0.00 0.04 0.04 96 1004.5
20260904085033 63 113 0.0 0.0 0.00 0.04 0.04 96 1004.4
20260904084530 63 113 0.0 0.0 0.00 0.04 0.04 96 1004.4
20260904084032 63 113 0.0 1.0 0.00 0.04 0.04 97 1004.4
20260904083529 63 113 0.0 1.0 0.00 0.04 0.04 97 1004.4
20260904083031 63 113 0.0 0.0 0.00 0.04 0.04 96 1004.5
20260904082528 63 113 0.0 0.0 0.00 0.04 0.04 96 1004.5
20260904082028 63 113 0.0 1.0 0.00 0.04 0.04 97 1004.5
20260904081527 63 113 0.0 1.0 0.00 0.04 0.04 97 1004.5
20260904081027 63 113 0.0 0.0 0.00 0.04 0.04 97 1004.5
20260904080527 63 113 0.0 0.0 0.00 0.04 0.04 97 1004.4
20260904080027 63 113 0.0 0.0 0.00 0.04 0.04 96 1004.5
20260904075530 63 113 0.0 0.0 0.00 0.05 0.04 96 1004.5
20260904075026 63 113 0.0 1.0 0.00 0.05 0.04 96 1004.4
20260904074539 63 113 0.0 0.0 0.00 0.05 0.04 96 1004.4
20260904074025 64 113 0.0 0.0 0.00 0.05 0.04 96 1004.4
20260904073525 64 113 0.0 0.0 0.00 0.05 0.04 96 1004.4
20260904073025 64 113 0.0 1.0 0.00 0.05 0.04 96 1004.5
20260904072524 64 113 0.0 1.0 0.00 0.05 0.04 96 1004.5
20260904072024 64 113 0.0 1.0 0.00 0.05 0.04 96 1004.6
20260904071530 64 113 0.0 0.0 0.00 0.05 0.04 96 1004.5
20260904071025 64 113 0.0 0.0 0.00 0.05 0.04 96 1004.5
20260904070526 64 113 0.0 0.0 0.00 0.05 0.04 96 1004.4
20260904070024 64 113 0.0 0.0 0.00 0.05 0.04 96 1004.4
20260904065523 64 113 0.0 0.0 0.00 0.15 0.04 96 1004.5
20260904065024 64 113 0.0 1.0 0.00 0.15 0.04 96 1004.5
20260904064522 64 113 0.0 1.0 0.00 0.15 0.04 96 1004.4
20260904064022 64 113 0.0 1.0 0.00 0.15 0.04 96 1004.5
20260904063522 64 113 0.0 1.0 0.00 0.15 0.04 96 1004.6
20260904063021 64 113 0.0 0.0 0.00 0.15 0.04 96 1004.6
20260904062523 64 113 0.0 0.0 0.00 0.15 0.04 96 1004.6
20260904062021 64 113 0.0 0.0 0.00 0.15 0.04 96 1004.7
20260904061521 64 113 0.0 0.0 0.00 0.15 0.04 95 1004.7
20260904061022 64 113 0.0 0.0 0.00 0.15 0.04 95 1004.6
20260904060520 64 113 0.0 2.0 0.00 0.15 0.04 96 1004.7
20260904060019 64 113 0.0 2.0 0.00 0.15 0.04 96 1004.8
20260904055519 64 113 0.0 0.0 0.00 0.23 0.04 96 1004.8
20260904055019 64 113 0.0 1.0 0.01 0.23 0.04 96 1004.9
20260904054519 64 113 0.0 2.0 0.04 0.23 0.04 96 1004.9
20260904054017 64 113 0.0 2.0 0.04 0.23 0.04 96 1004.9
20260904053516 64 113 0.0 2.0 0.04 0.23 0.04 96 1004.9
20260904053021 64 113 0.0 2.0 0.04 0.23 0.04 95 1005.0
20260904052516 64 113 1.0 2.0 0.04 0.23 0.04 95 1004.9
20260904052015 64 165 0.0 2.0 0.04 0.23 0.04 95 1005.0
20260904051519 64 165 0.0 2.0 0.04 0.23 0.04 96 1005.1
20260904051014 64 165 0.0 2.0 0.04 0.23 0.04 96 1005.1
20260904050514 64 165 0.0 2.0 0.04 0.23 0.04 95 1005.1
20260904050014 64 165 0.0 4.0 0.04 0.23 0.04 95 1005.1
20260904045514 64 268 0.0 4.0 0.04 0.57 0.04 95 1005.2
20260904045012 64 35 0.0 4.0 0.03 0.56 0.03 95 1005.2
20260904044512 64 282 1.0 2.0 0.00 0.54 0.00 95 1005.3
20260904044010 64 292 0.0 1.0 0.00 0.54 0.00 94 1005.2
20260904043510 64 292 0.0 1.0 0.00 0.54 0.00 94 1005.1
20260904043010 64 292 0.0 1.0 0.00 0.54 0.00 94 1005.2
20260904042509 64 292 0.0 0.0 0.00 0.54 0.00 94 1005.3
20260904042009 64 292 0.0 1.0 0.00 0.54 0.00 94 1005.4
20260904041508 64 292 0.0 1.0 0.00 0.54 0.00 94 1005.4
20260904041007 65 292 0.0 0.0 0.00 0.54 0.00 94 1005.4
20260904040507 65 292 0.0 0.0 0.00 0.54 0.00 94 1005.4
20260904040006 65 292 0.0 2.0 0.00 0.73 0.54 93 1005.5
20260904035510 65 292 0.0 2.0 0.00 0.73 0.54 93 1005.5
20260904035006 65 292 0.0 0.0 0.00 0.73 0.54 93 1005.5
20260904034505 65 292 0.0 0.0 0.00 0.73 0.54 93 1005.4
20260904034007 65 292 0.0 0.0 0.00 0.73 0.54 93 1005.3
20260904033504 65 292 0.0 2.0 0.00 0.73 0.54 93 1005.3
20260904033004 65 292 0.0 2.0 0.00 0.73 0.54 93 1005.3
20260904032504 65 255 0.0 2.0 0.00 0.73 0.54 93 1005.2
20260904032005 65 194 0.0 0.0 0.00 0.73 0.54 93 1005.3
20260904031504 65 194 0.0 0.0 0.00 0.73 0.54 93 1005.3
20260904031004 65 194 0.0 0.0 0.00 0.73 0.54 93 1005.4
20260904030504 65 194 0.0 0.0 0.00 0.73 0.54 93 1005.3
20260904030004 66 194 0.0 2.0 0.00 0.81 0.54 93 1005.4
20260904025505 66 194 0.0 2.0 0.00 0.81 0.54 93 1005.3
20260904025004 66 194 0.0 0.0 0.00 0.81 0.54 93 1005.4
20260904024504 66 194 0.0 0.0 0.00 0.81 0.54 93 1005.4
20260904024003 66 194 0.0 0.0 0.00 0.81 0.54 93 1005.4
20260904023504 66 194 0.0 2.0 0.00 0.81 0.54 93 1005.4
20260904023003 66 194 0.0 2.0 0.00 0.81 0.54 93 1005.4
20260904022503 66 194 0.0 2.0 0.00 0.81 0.54 92 1005.5
20260904022003 66 194 0.0 0.0 0.00 0.81 0.54 93 1005.6
20260904021504 66 194 0.0 0.0 0.00 0.81 0.54 92 1005.5
20260904021002 66 194 0.0 0.0 0.00 0.81 0.54 92 1005.5
20260904020503 66 194 0.0 0.0 0.00 0.81 0.54 92 1005.5
20260904020003 66 194 0.0 0.0 0.00 0.81 0.54 92 1005.6
20260904015502 66 194 0.0 0.0 0.00 0.81 0.54 92 1005.7
20260904015004 67 194 0.0 0.0 0.00 0.81 0.54 92 1005.7
20260904014502 67 194 0.0 0.0 0.00 0.81 0.54 92 1005.6
20260904014003 67 194 0.0 1.0 0.00 0.81 0.54 91 1005.7
20260904013502 67 195 0.0 1.0 0.00 0.81 0.54 91 1005.7
20260904013001 67 195 0.0 1.0 0.00 0.81 0.54 91 1005.6
20260904012501 67 195 0.0 1.0 0.00 0.81 0.54 91 1005.8
20260904012002 67 195 0.0 0.0 0.00 0.81 0.54 91 1005.7
20260904011504 68 195 0.0 0.0 0.00 0.81 0.54 91 1005.6
20260904011003 68 195 0.0 0.0 0.00 0.81 0.54 92 1005.6
20260904010600 68 195 0.0 0.0 0.00 0.81 0.54 91 1005.7
20260904010100 68 195 0.0 0.0 0.00 0.81 0.54 91 1005.6
20260904005559 68 195 0.0 1.0 0.00 0.81 0.54 91 1005.5
20260904005100 68 195 0.0 1.0 0.00 0.81 0.54 91 1005.5
20260904004603 68 277 0.0 1.0 0.00 0.81 0.54 91 1005.4
20260904004059 68 277 0.0 1.0 0.00 0.81 0.54 90 1005.3
20260904003559 68 277 0.0 0.0 0.00 0.81 0.54 89 1005.2
20260904003102 69 277 0.0 0.0 0.00 0.81 0.54 90 1005.1
20260904002559 69 277 0.0 0.0 0.00 0.81 0.54 90 1005.0
20260904002103 69 277 0.0 0.0 0.00 0.81 0.54 90 1005.0
20260904001600 69 277 0.0 0.0 0.00 0.81 0.54 90 1004.9
20260904001058 69 277 0.0 0.0 0.00 0.81 0.54 90 1004.9
20260904000602 69 277 0.0 0.0 0.00 0.81 0.54 89 1005.0
20260904000140 70 277 0.0 0.0 0.00 0.81 0.54 88 1004.9
20260903235558 70 277 0.0 0.0 0.00 0.81 0.54 89 1004.9
20260903235058 70 277 0.0 0.0 0.00 0.81 0.54 88 1004.7
20260903234558 70 277 0.0 0.0 0.00 0.81 0.54 87 1004.5
20260903234057 71 277 0.0 2.0 0.00 0.81 0.54 87 1004.5
20260903233559 71 277 0.0 2.0 0.00 0.81 0.54 85 1004.6
20260903233057 71 277 0.0 0.0 0.00 0.81 0.54 85 1004.6
20260903232556 71 277 0.0 0.0 0.00 0.81 0.54 85 1004.5
20260903232100 72 277 0.0 0.0 0.00 0.81 0.54 84 1004.6
20260903231613 72 277 0.0 1.0 0.00 0.81 0.54 84 1004.6
20260903231056 72 277 0.0 1.0 0.00 0.81 0.54 83 1004.7
20260903230556 73 277 0.0 0.0 0.00 0.81 0.54 83 1004.8
20260903230104 73 277 0.0 0.0 0.00 0.81 0.54 82 1004.6
20260903225558 73 277 0.0 0.0 0.00 0.81 0.54 81 1004.6
20260903225055 73 277 0.0 0.0 0.00 0.81 0.54 81 1004.3
20260903224558 74 277 0.0 0.0 0.00 0.81 0.54 80 1004.5
20260903224058 74 277 0.0 0.0 0.00 0.81 0.54 79 1004.6
20260903223557 74 277 0.0 0.0 0.00 0.81 0.54 79 1004.5
20260903223056 75 277 0.0 0.0 0.00 0.81 0.54 78 1004.7
20260903222557 75 277 0.0 1.0 0.00 0.81 0.54 78 1004.7
20260903222054 76 277 0.0 1.0 0.00 0.81 0.54 79 1004.7
20260903221555 76 277 0.0 1.0 0.00 0.81 0.54 78 1004.8
20260903221054 77 277 0.0 2.0 0.00 0.81 0.54 77 1004.8
20260903220553 77 294 0.0 3.0 0.00 0.81 0.54 77 1004.8
20260903220108 77 261 0.0 4.0 0.00 0.81 0.54 77 1004.8
20260903215556 78 263 1.0 4.0 0.00 0.81 0.54 75 1004.8
20260903215053 78 292 1.0 4.0 0.00 0.81 0.54 75 1004.9
20260903214557 79 333 0.0 4.0 0.00 0.81 0.54 74 1004.8
20260903214052 79 309 1.0 3.0 0.00 0.81 0.54 75 1004.6
20260903213552 78 311 0.0 4.0 0.00 0.81 0.54 76 1004.5
20260903213057 78 283 1.0 4.0 0.00 0.81 0.54 76 1004.6
20260903212552 78 277 1.0 3.0 0.00 0.81 0.54 77 1004.6
20260903212051 78 258 0.0 4.0 0.00 0.81 0.54 76 1004.5
20260903211551 78 309 1.0 4.0 0.00 0.81 0.54 75 1004.5
20260903211051 78 344 0.0 4.0 0.00 0.81 0.54 77 1004.4
20260903210550 78 341 0.0 5.0 0.00 0.81 0.54 79 1004.5
20260903210052 78 288 1.0 7.0 0.00 0.81 0.54 79 1004.4
20260903205552 78 288 3.0 7.0 0.00 0.81 0.54 79 1004.4
20260903205050 78 319 2.0 4.0 0.00 0.81 0.54 79 1004.3
20260903204549 77 265 2.0 4.0 0.00 0.81 0.54 81 1004.4
20260903204048 77 285 1.0 5.0 0.00 0.81 0.54 79 1004.3
20260903203553 78 319 2.0 6.0 0.00 0.81 0.54 78 1004.3
20260903203049 80 304 1.0 5.0 0.00 0.81 0.54 77 1004.3
20260903202550 80 201 1.0 8.0 0.00 0.81 0.54 75 1004.3
20260903202048 81 227 1.0 5.0 0.00 0.81 0.54 77 1004.4
20260903201548 81 313 1.0 8.0 0.00 0.81 0.54 74 1004.3
20260903201046 81 318 1.0 8.0 0.00 0.81 0.54 69 1004.3
20260903200548 81 171 2.0 7.0 0.00 0.81 0.54 74 1004.3
20260903200045 80 234 2.0 7.0 0.00 0.81 0.54 72 1004.5
20260903195543 80 126 2.0 7.0 0.00 0.81 0.54 73 1004.5
20260903195043 80 315 1.0 8.0 0.00 0.81 0.54 72 1004.5
20260903194548 79 198 3.0 8.0 0.00 0.81 0.54 73 1004.5
20260903194039 79 86 0.0 6.0 0.00 0.81 0.54 71 1004.5
20260903193538 79 174 1.0 9.0 0.00 0.81 0.54 73 1004.6
20260903193043 79 174 3.0 8.0 0.00 0.81 0.54 74 1004.7
20260903192537 78 129 0.0 9.0 0.00 0.81 0.54 76 1004.7
20260903192039 78 180 3.0 9.0 0.00 0.81 0.54 76 1004.7
20260903191543 77 82 2.0 9.0 0.00 0.81 0.54 78 1004.7
20260903191035 77 103 0.0 7.0 0.00 0.81 0.54 76 1004.7
20260903190535 78 112 2.0 9.0 0.00 0.81 0.54 76 1004.8
20260903190047 78 135 1.0 9.0 0.00 0.81 0.54 75 1004.7
20260903185535 78 268 2.0 8.0 0.00 0.81 0.54 78 1004.7
20260903185034 78 309 1.0 8.0 0.00 0.81 0.54 77 1004.8
20260903184533 78 305 1.0 8.0 0.00 0.81 0.54 75 1004.8
20260903184032 78 159 3.0 9.0 0.00 0.81 0.54 76 1004.7
20260903183532 78 132 3.0 8.0 0.00 0.81 0.54 78 1004.7
20260903183030 77 161 3.0 7.0 0.00 0.81 0.54 80 1004.7
20260903182532 77 58 1.0 8.0 0.00 0.81 0.54 78 1004.8
20260903182028 76 105 2.0 8.0 0.00 0.81 0.54 78 1004.9
20260903181540 76 96 2.0 7.0 0.00 0.81 0.54 78 1004.9
20260903181030 77 283 1.0 8.0 0.00 0.81 0.54 76 1005.0
20260903180528 77 232 3.0 8.0 0.00 0.81 0.54 76 1005.0
20260903180027 78 165 2.0 8.0 0.00 0.81 0.54 77 1005.0
20260903175527 77 105 2.0 7.0 0.00 0.81 0.54 80 1004.9
20260903175024 77 288 2.0 9.0 0.00 0.81 0.54 80 1004.9
20260903174523 77 223 0.0 7.0 0.00 0.81 0.54 81 1005.0
20260903174022 76 154 1.0 10.0 0.00 0.81 0.54 80 1005.1
20260903173521 76 178 2.0 10.0 0.00 0.81 0.54 80 1005.2
20260903173019 76 163 2.0 11.0 0.00 0.81 0.54 78 1005.2
20260903172518 76 147 3.0 11.0 0.00 0.81 0.54 80 1005.2
20260903172019 76 244 3.0 9.0 0.00 0.81 0.54 80 1005.1
20260903171527 76 196 2.0 7.0 0.00 0.81 0.54 81 1005.2
20260903171014 76 274 2.0 8.0 0.00 0.81 0.54 81 1005.2
20260903170514 76 211 3.0 8.0 0.00 0.81 0.54 82 1005.2
20260903170012 75 216 1.0 9.0 0.00 0.81 0.54 81 1005.3
20260903165510 75 164 3.0 9.0 0.00 0.81 0.54 82 1005.3
20260903165010 75 138 1.0 5.0 0.00 0.81 0.54 82 1005.4
20260903164508 74 246 2.0 4.0 0.00 0.81 0.54 83 1005.4
20260903164007 74 117 0.0 9.0 0.00 0.81 0.54 83 1005.4
20260903163508 74 122 2.0 9.0 0.00 0.81 0.54 83 1005.5
20260903163006 74 148 1.0 7.0 0.00 0.81 0.54 84 1005.5
20260903162504 73 212 1.0 8.0 0.00 0.81 0.54 84 1005.6
20260903162004 73 46 2.0 4.0 0.00 0.81 0.54 85 1005.5
20260903161502 73 97 0.0 3.0 0.00 0.81 0.54 84 1005.6
20260903161003 73 36 0.0 4.0 0.00 0.81 0.54 85 1005.6
20260903160505 73 107 1.0 7.0 0.00 0.81 0.54 85 1005.7
20260903160001 73 184 2.0 7.0 0.00 0.81 0.54 84 1005.7
20260903155501 73 360 1.0 7.0 0.00 0.81 0.54 86 1005.7
20260903155101 73 103 2.0 8.0 0.00 0.81 0.54 84 1005.7
20260903154558 73 281 2.0 8.0 0.00 0.81 0.54 85 1005.7
20260903154057 72 232 2.0 8.0 0.00 0.81 0.54 85 1005.8
20260903153555 72 272 1.0 6.0 0.00 0.81 0.54 87 1006.0
20260903153054 72 223 2.0 6.0 0.00 0.81 0.54 87 1006.0
20260903152553 72 302 2.0 7.0 0.00 0.81 0.54 86 1006.1
20260903152051 71 286 1.0 10.0 0.00 0.81 0.54 88 1006.1
20260903151553 71 167 4.0 10.0 0.00 0.81 0.54 88 1006.2
20260903151049 70 150 1.0 4.0 0.00 0.81 0.54 88 1006.2
20260903150549 70 88 1.0 5.0 0.00 0.81 0.54 89 1006.3
20260903150110 70 109 2.0 7.0 0.00 0.81 0.54 89 1006.4
20260903145546 70 159 2.0 7.0 0.00 0.81 0.54 90 1006.6
20260903145046 69 90 0.0 3.0 0.00 0.81 0.54 92 1006.6
20260903144544 69 117 1.0 6.0 0.00 0.81 0.54 92 1006.6
20260903144044 68 126 2.0 8.0 0.00 0.81 0.54 91 1006.5
20260903143542 68 146 2.0 8.0 0.00 0.81 0.54 91 1006.6
20260903143045 68 124 1.0 7.0 0.00 0.81 0.54 91 1006.6
20260903142541 68 142 1.0 7.0 0.00 0.81 0.54 91 1006.7
20260903142041 68 34 1.0 7.0 0.00 0.81 0.54 93 1006.7
20260903141539 67 133 2.0 7.0 0.00 0.81 0.54 93 1006.7
20260903141038 67 227 1.0 8.0 0.00 0.81 0.54 93 1006.6
20260903140537 67 273 1.0 5.0 0.00 0.81 0.54 93 1006.7
20260903140043 66 148 1.0 5.0 0.00 0.81 0.54 93 1006.7
20260903135637 66 253 1.0 5.0 0.00 0.81 0.54 93 1006.7
20260903135035 66 122 0.0 5.0 0.00 0.81 0.54 93 1006.7
20260903134535 66 117 1.0 5.0 0.00 0.81 0.54 94 1006.6
20260903134033 66 144 1.0 4.0 0.00 0.81 0.54 95 1006.6
20260903133532 66 121 2.0 4.0 0.00 0.81 0.54 95 1006.5
20260903133032 66 247 1.0 7.0 0.00 0.81 0.54 95 1006.6
20260903132532 65 126 2.0 7.0 0.00 0.81 0.54 95 1006.7
20260903132030 65 150 1.0 4.0 0.00 0.81 0.54 95 1006.6
20260903131530 65 32 0.0 7.0 0.00 0.81 0.54 95 1006.6
20260903131030 65 172 1.0 5.0 0.00 0.81 0.54 95 1006.5
20260903130529 65 148 2.0 5.0 0.00 0.81 0.54 95 1006.4
20260903130028 65 127 0.0 3.0 0.00 0.81 0.54 95 1006.5
20260903125528 65 149 0.0 6.0 0.00 0.81 0.54 95 1006.5
20260903125030 64 121 1.0 6.0 0.00 0.81 0.54 95 1006.5
20260903124527 64 96 2.0 4.0 0.00 0.81 0.54 95 1006.6
20260903124026 64 115 1.0 5.0 0.00 0.81 0.54 95 1006.7
20260903123525 64 128 2.0 6.0 0.00 0.81 0.54 96 1006.8
20260903123029 64 123 0.0 3.0 0.00 0.81 0.54 96 1006.8
20260903122626 64 120 0.0 3.0 0.00 0.81 0.54 96 1006.7
20260903122025 64 184 1.0 3.0 0.00 0.81 0.54 95 1006.7
20260903121523 64 131 1.0 2.0 0.00 0.81 0.54 95 1006.8
20260903121023 64 171 0.0 4.0 0.00 0.81 0.54 96 1006.9
20260903120524 64 188 0.0 4.0 0.00 0.81 0.54 96 1006.9
20260903120026 63 184 1.0 3.0 0.00 0.81 0.54 95 1006.9
20260903115522 63 146 0.0 2.0 0.00 0.81 0.54 95 1006.9
20260903115022 63 138 0.0 3.0 0.00 0.81 0.54 95 1007.0
20260903114522 63 157 1.0 3.0 0.00 0.81 0.54 96 1007.0
20260903114021 63 157 1.0 3.0 0.00 0.81 0.54 96 1007.0
20260903113524 63 161 0.0 4.0 0.00 0.81 0.54 96 1007.0
20260903113020 63 95 0.0 7.0 0.00 0.81 0.54 96 1007.0
20260903112520 63 160 2.0 8.0 0.00 0.81 0.54 95 1007.0
20260903112022 63 120 1.0 7.0 0.00 0.81 0.54 95 1007.0
20260903111519 63 140 0.0 2.0 0.00 0.81 0.54 95 1007.0
20260903111020 63 227 0.0 5.0 0.00 0.81 0.54 95 1007.0
20260903110518 63 215 0.0 6.0 0.00 0.81 0.54 96 1007.0
20260903110017 63 178 1.0 4.0 0.00 0.81 0.54 96 1006.9
20260903105518 63 156 0.0 5.0 0.00 0.81 0.54 96 1006.9
20260903105019 63 130 0.0 4.0 0.00 0.81 0.54 96 1006.8
20260903104517 63 143 1.0 4.0 0.00 0.81 0.54 96 1006.7
20260903104017 63 128 0.0 3.0 0.00 0.81 0.54 96 1006.6
20260903103516 63 144 0.0 4.0 0.00 0.81 0.54 96 1006.7
20260903103016 63 105 1.0 4.0 0.00 0.81 0.54 96 1006.7
20260903102516 63 134 0.0 5.0 0.00 0.81 0.54 96 1006.7
20260903102015 62 147 2.0 5.0 0.00 0.81 0.54 96 1006.6
20260903101515 62 124 1.0 7.0 0.00 0.81 0.54 96 1006.5
20260903101015 62 243 1.0 7.0 0.00 0.81 0.54 96 1006.6
20260903100516 62 185 0.0 4.0 0.00 0.81 0.54 96 1006.5
20260903100024 62 74 1.0 2.0 0.00 0.81 0.54 96 1006.5
20260903095515 62 99 0.0 3.0 0.00 0.81 0.54 96 1006.4
20260903095018 62 131 0.0 5.0 0.00 0.81 0.54 95 1006.4
20260903094514 62 137 1.0 5.0 0.00 0.81 0.54 95 1006.5
20260903094015 62 103 1.0 5.0 0.00 0.81 0.54 95 1006.5
20260903093516 62 105 0.0 8.0 0.00 0.81 0.54 95 1006.5
20260903093013 62 101 2.0 8.0 0.00 0.81 0.54 95 1006.3
20260903092512 62 135 1.0 5.0 0.00 0.81 0.54 96 1006.4